Location: Fleischmann Planetarium and Science Center
(39.5456°N, 119.8190°W)
Time: 23:26:49
(UTC-07:00)

Daily predictions for brighter satellites

Satellite Brightness Start Highest point End
(mag) Time Altitude Azimuth Time Altitude Azimuth Time Altitude Azimuth
Cosmos 1331 Rocket 4.1 20:38:51 10° NNW 20:44:02 61° ENE 20:49:08 10° SSE
CZ-2D R/B 3.7 20:41:57 10° S 20:45:48 67° W 20:49:43 10° NNW
H-2A R/B 2.6 20:43:46 10° SE 20:47:45 41° ENE 20:51:50 10° N
Atlas Centaur 2 3.7 20:42:42 10° SW 20:48:53 30° SSE 20:55:51 10° ESE
Cosmos 2219 Rocket 4.5 20:45:43 10° WSW 20:50:40 31° WNW 20:55:38 10° N
Cosmos 1666 3.7 20:47:54 10° NNE 20:51:26 32° ENE 20:54:56 10° SE
SeaSat 1 3.6 20:47:54 10° ESE 20:52:06 29° NE 20:56:19 10° N
Cosmos 1500 4.2 20:49:03 10° NNW 20:52:49 49° W 20:56:34 10° SSW
Cosmos 2369 Rocket 4.3 20:50:43 10° NNE 20:53:16 13° NE 20:55:49 10° ENE
Cosmos 1939 Rocket 3.6 20:54:05 10° SE 20:57:56 38° ENE 21:01:48 10° N
SL-16 R/B 2.3 20:53:48 10° SSW 20:59:27 85° WNW 21:05:09 10° NNE
Cosmos 1743 3.2 21:01:47 10° NNW 21:05:35 61° W 21:09:21 10° S
Lacrosse 5 rocket 3.3 21:03:10 10° WSW 21:06:40 32° NW 21:10:19 10° NNE
Cosmos 2228 3.2 21:03:06 10° N 21:07:26 55° E 21:11:46 10° SSE
COSMOS 2455 3.6 21:03:23 10° SSE 21:08:33 31° ESE 21:13:45 10° NE
Cosmos 1025 Rocket 4.3 21:04:45 10° SSW 21:08:56 44° W 21:13:10 10° N
APEX 3.7 21:09:12 10° NNW 21:13:16 67° ENE 21:18:07 12° SSE
USA 186 3.8 21:13:52 10° SSW 21:16:14 22° W 21:18:30 10° NW
Cosmos 1892 Rocket 4.4 21:13:20 10° SSW 21:17:40 53° W 21:22:03 10° N
BREEZE-M DEB (TANK) 1.6 21:15:21 10° NW 21:18:00 87° SW 21:19:20 20° SE
Meteor 1-23 Rocket 4.5 21:14:43 10° SSW 21:20:21 76° W 21:26:05 10° N
Abrixas rocket 2.2 21:18:37 10° WNW 21:22:03 84° SSW 21:24:24 19° SE
ATLAS 3B R/B 3.8 21:16:53 10° SSE 21:22:53 25° ESE 21:28:49 10° ENE
ERS-1 Rocket 3.3 21:18:16 10° S 21:23:16 68° WSW 21:28:17 10° NNW
Envisat 3.0 21:22:53 12° SSE 21:27:32 68° ENE 21:32:35 10° N
Cosmos 1603 3.7 21:22:53 10° S 21:28:25 64° ESE 21:33:58 10° NNE
Cosmos 1891 Rocket 4.4 21:23:06 10° N 21:29:15 81° E 21:35:17 10° S
Okean 2 4.2 21:25:59 10° SSW 21:30:05 53° W 21:34:11 10° N
Nimbus 7 Rocket 4.4 21:25:44 10° NNE 21:31:43 84° ESE 21:37:37 10° SSW
Meteor 2-9 Rocket 4.5 21:28:17 10° NNW 21:33:58 74° W 21:39:45 10° S
Lacrosse 4 Rocket 3.5 21:35:27 11° E 21:35:27 11° E 21:35:55 10° E
ISS -2.9 21:35:29 10° SSW 21:38:32 39° SE 21:41:37 10° ENE
YAOGAN 6 3.5 21:36:49 22° ESE 21:38:33 34° ENE 21:41:58 10° N
USA 234 3.6 21:33:09 14° ESE 21:38:42 58° NE 21:45:07 10° NW
CZ-2C R/B 3.4 21:37:37 10° SW 21:39:06 15° W 21:40:36 10° NW
PSLV R/B 3.3 21:35:43 10° WSW 21:39:14 67° SSE 21:42:18 13° E
UNK 4.2 21:42:37 10° NNE 21:48:03 74° ESE 21:53:45 10° S
CZ-4 R/B 4.3 21:47:13 10° NNE 21:51:58 43° E 21:54:39 23° SSE
Timation 1 Rocket 4.5 21:46:07 10° NNW 21:52:08 74° WSW 21:56:28 19° SSE
Cosmos 1943 3.6 21:49:01 17° SSE 21:52:57 41° ESE 21:58:15 10° NE
Cosmos 1461 3.0 21:48:47 10° NW 21:53:02 69° WSW 21:55:10 27° SSE
Tsikada Rocket 4.1 21:47:22 10° S 21:53:48 85° W 22:00:13 10° N
CZ-4 SHROUD 3.9 21:52:22 21° S 21:54:12 52° W 21:57:18 10° NNW
Milstar 3 Cent rocket 4.0 21:50:41 10° WSW 21:54:36 16° SSW 21:56:46 13° S
Cosmos 1238 4.1 21:55:12 29° S 21:56:41 80° E 21:59:42 10° N
SPOT 5 2.9 21:54:49 18° S 21:58:00 66° WSW 22:02:20 10° NNW
Cosmos 1602 Rocket 4.4 21:56:20 10° SSW 22:00:41 50° W 22:05:04 10° N
MetOp-A 4.1 21:58:02 21° SSE 22:01:42 87° WSW 22:07:06 10° NNW
Cosmos 1943 Rocket 4.1 21:58:28 10° N 22:02:06 17° NE 22:05:02 12° E
Cosmos 1825 Rocket 3.7 22:03:52 31° SSE 22:05:43 55° E 22:10:05 10° NNE
Cosmos 1992 Rocket 4.1 22:00:50 10° NNW 22:06:00 59° ENE 22:08:22 31° SE
SL-08 RB Rocket 4.1 22:05:28 32° SE 22:07:11 47° ENE 22:11:32 10° N
H-2A R/B 3.0 22:09:27 25° ESE 22:11:08 30° ENE 22:15:30 10° N
Cosmos 1812 Rocket 4.0 22:07:55 10° NNW 22:12:15 60° W 22:14:49 23° SSW
SPOT 1/Viking Rocket 3.5 22:16:59 30° S 22:19:38 83° WSW 22:24:50 10° NNW
Terra 2.8 22:18:26 28° E 22:19:41 33° ENE 22:23:56 10° N
Geosat 4.0 22:17:06 10° NNE 22:22:06 61° ESE 22:24:33 29° S
Cosmos 1190 Rocket 4.0 22:20:42 29° S 22:23:25 66° ESE 22:28:42 10° NNE
Cosmos 2142 Rocket 4.4 22:17:35 10° N 22:23:55 77° E 22:26:59 32° SSE
USA 245 4.4 22:20:44 26° S 22:24:19 76° WSW 22:29:41 10° NNW
CZ-4C R/B 3.5 22:24:36 48° SE 22:25:35 65° ENE 22:29:41 10° N
SeaSat 1 3.5 22:26:56 22° SSW 22:29:29 37° WSW 22:34:04 10° NW
DMSP B5D2-2 4.5 22:28:35 10° NNE 22:33:36 43° E 22:34:22 40° ESE
Cosmos 1634 Rocket 3.9 22:29:06 10° N 22:35:18 84° W 22:38:19 33° S
ARGOS 3.2 22:33:35 35° S 22:35:58 75° WSW 22:41:25 10° NNW
CZ-4B R/B 4.5 22:32:45 10° N 22:37:37 47° WNW 22:42:32 10° SW
Atlas Centaur 2 3.3 22:30:30 10° WSW 22:37:56 44° S 22:40:54 33° SE
Cosmos 2369 Rocket 2.1 22:32:32 10° NNW 22:38:14 81° ENE 22:40:04 44° SSE
Cosmos 676 Rocket 4.1 22:38:47 46° SE 22:39:51 55° ESE 22:45:03 10° NNE
Cosmos 1900 4.4 22:40:59 48° SSE 22:42:08 61° ESE 22:47:12 10° NE
Cosmos 1953 3.5 22:42:42 10° NNE 22:45:51 30° ENE 22:45:51 30° ENE
NOAA 11 4.4 22:46:21 37° SSW 22:48:27 64° WSW 22:53:51 10° NNW
Cosmos 1140 Rocket 4.5 22:49:15 30° E 22:49:15 30° E 22:53:16 10° NE
Cosmos 1953 Rocket 3.9 22:49:50 41° SW 22:51:10 61° W 22:55:34 10° N
Cosmos 489 Rocket 4.4 22:49:08 28° SSW 22:52:46 90° W 22:59:11 10° NNE
COSMOS 2455 4.0 22:48:39 10° SW 22:54:18 42° NW 23:00:00 10° NNE
IGS 5A 3.4 22:56:53 71° ENE 22:56:54 71° ENE 23:01:03 10° N
Cosmos 2279 Rocket 3.9 22:53:28 10° N 22:59:45 88° E 23:01:43 47° S
Cosmos 2263 4.1 22:56:36 10° NNW 23:02:15 89° W 23:03:26 58° SSE
COSMOS 2406 3.8 23:03:09 39° E 23:03:09 39° E 23:08:06 10° NE
Cosmos 1346 Rocket 4.0 23:07:03 32° WSW 23:07:53 36° WNW 23:11:32 10° N
Cosmos 407 Rocket 4.0 23:09:42 29° SW 23:12:14 56° WNW 23:17:24 10° N
Cosmos-2242 3.0 23:07:51 10° N 23:12:08 80° NE 23:12:08 80° NE
Lacrosse 4 Rocket 2.1 23:11:43 43° W 23:12:29 50° WNW 23:16:29 10° NNE
Cosmos 1932 4.3 23:11:30 55° S 23:12:41 67° ESE 23:18:51 10° NE
ATLAS 3B R/B 3.2 23:05:23 10° SW 23:13:04 70° NW 23:20:37 10° NNE
ISS -1.0 23:12:16 10° W 23:15:04 25° NNW 23:17:52 10° NNE
Cosmos 2180 Rocket 4.5 23:11:36 10° N 23:17:53 80° W 23:19:34 52° S
USA 234 3.8 23:20:29 37° SSW 23:21:48 41° SW 23:27:56 10° WNW
Cosmos 1607 4.3 23:24:11 46° ESE 23:24:11 46° ESE 23:29:42 10° NE
CZ-4B R/B 4.4 23:24:39 11° NE 23:24:39 11° NE 23:25:12 10° NE
Cosmos 1842 4.0 23:24:17 50° WNW 23:24:17 50° WNW 23:27:48 10° N
Cosmos 2208 Rocket 4.3 23:21:20 10° N 23:26:22 50° ENE 23:26:37 50° ENE
CARTOSAT-1 4.4 23:28:45 41° W 23:28:45 41° W 23:32:49 10° NNW
Cosmos 1954 Rocket 4.2 23:30:11 52° SW 23:31:17 67° WNW 23:36:35 10° NNE
Cosmos 1758 3.9 23:27:14 10° N 23:30:40 59° NNW 23:30:40 59° NNW
ALOS 2 4.3 23:40:13 24° ENE 23:40:13 24° ENE 23:43:19 10° NNE
Spot 4 4.5 23:40:32 45° W 23:40:34 45° W 23:45:10 10° NNW
Cosmos 1943 Rocket 2.1 23:40:52 10° NNW 23:46:24 71° WSW 23:46:33 71° WSW
USA 238 DEB 3.7 23:45:41 46° SSW 23:48:03 89° WNW 23:55:10 10° NNE
USA 238 3.7 23:45:50 47° SSW 23:48:09 90° S 23:55:16 10° NE
Cosmos 1741 Rocket 3.9 23:48:30 81° ENE 23:48:30 81° ENE 23:53:37 10° NNE
H-2A R/B 3.3 23:50:05 28° WSW 23:50:30 28° W 23:54:50 10° NW
Meteor 2-5 Rocket 3.8 23:53:37 67° E 23:53:39 67° E 23:59:25 10° NNE
